TimeAKDT,TemperatureF,Dew PointF,Humidity,Sea Level PressureIn,VisibilityMPH,Wind Direction,Wind SpeedMPH,Gust SpeedMPH,PrecipitationIn,Events,Conditions,WindDirDegrees,DateUTC
12:53 AM,33.1,27.0,78,29.67,10.0,Calm,Calm,-,N/A,,Overcast,0,2013-05-02 08:53:00
1:53 AM,30.9,27.0,85,29.69,10.0,Calm,Calm,-,N/A,,Scattered Clouds,0,2013-05-02 09:53:00
2:53 AM,32.0,28.0,85,29.71,10.0,Calm,Calm,-,N/A,,Overcast,0,2013-05-02 10:53:00
3:53 AM,32.0,28.0,85,29.71,10.0,Calm,Calm,-,N/A,,Overcast,0,2013-05-02 11:53:00
4:53 AM,30.9,28.0,89,29.73,10.0,Calm,Calm,-,N/A,,Overcast,0,2013-05-02 12:53:00
5:53 AM,33.1,30.0,89,29.73,10.0,SE,4.6,-,0.00,,Overcast,130,2013-05-02 13:53:00
6:53 AM,33.1,32.0,96,29.74,10.0,Calm,Calm,-,0.01,,Overcast,0,2013-05-02 14:53:00
7:37 AM,33.8,32.0,93,29.74,6.0,Calm,Calm,-,0.01,Snow,Light Snow,0,2013-05-02 15:37:00
7:53 AM,33.1,32.0,96,29.75,6.0,Calm,Calm,-,0.01,,Overcast,0,2013-05-02 15:53:00
8:53 AM,33.1,32.0,96,29.76,3.0,Calm,Calm,-,0.02,Snow,Light Snow,0,2013-05-02 16:53:00
9:48 AM,33.8,33.8,100,29.77,3.0,NNE,3.5,-,0.02,Snow,Light Snow,30,2013-05-02 17:48:00
9:53 AM,34.0,33.1,96,29.78,3.0,NE,3.5,-,0.02,Snow,Light Snow,50,2013-05-02 17:53:00
10:53 AM,35.1,34.0,96,29.80,4.0,NNE,3.5,-,0.01,,Overcast,20,2013-05-02 18:53:00
11:00 AM,35.6,35.6,100,29.79,10.0,Calm,Calm,-,N/A,,Overcast,0,2013-05-02 19:00:00
11:53 AM,37.0,35.1,93,29.81,10.0,NE,4.6,-,0.01,,Overcast,40,2013-05-02 19:53:00
12:53 PM,37.0,35.1,93,29.82,10.0,North,3.5,-,0.01,,Overcast,10,2013-05-02 20:53:00
1:53 PM,37.0,36.0,96,29.84,10.0,North,3.5,-,N/A,,Overcast,360,2013-05-02 21:53:00
2:53 PM,39.0,37.0,93,29.86,10.0,Variable,3.5,-,N/A,,Overcast,0,2013-05-02 22:53:00
3:53 PM,39.0,37.0,93,29.86,10.0,SSW,4.6,-,0.01,,Overcast,210,2013-05-02 23:53:00
4:44 PM,39.2,35.6,87,29.85,8.0,SW,5.8,-,0.01,Rain,Light Rain,220,2013-05-03 00:44:00
4:53 PM,39.0,37.0,93,29.86,9.0,SW,5.8,-,0.01,Rain,Light Rain,220,2013-05-03 00:53:00
5:08 PM,37.4,35.6,93,29.85,10.0,WSW,6.9,-,0.01,Rain,Light Rain,240,2013-05-03 01:08:00
5:19 PM,37.4,35.6,93,29.85,10.0,WSW,6.9,-,0.01,Rain,Light Rain,240,2013-05-03 01:19:00
5:53 PM,37.0,35.1,93,29.86,7.0,SSW,5.8,-,0.03,Rain,Light Rain,210,2013-05-03 01:53:00
6:16 PM,35.6,35.6,100,29.85,7.0,SW,6.9,-,0.01,Rain,Light Rain,220,2013-05-03 02:16:00
6:53 PM,36.0,36.0,100,29.86,7.0,SW,4.6,-,0.04,Rain,Light Rain,220,2013-05-03 02:53:00
6:55 PM,35.6,35.6,100,29.85,7.0,SW,4.6,-,0.01,Rain,Light Rain,220,2013-05-03 02:55:00
7:13 PM,35.6,35.6,100,29.85,8.0,SW,3.5,-,0.02,Rain,Light Rain,230,2013-05-03 03:13:00
7:53 PM,36.0,35.1,97,29.86,7.0,Calm,Calm,-,0.05,Rain,Light Rain,0,2013-05-03 03:53:00
8:53 PM,35.1,34.0,96,29.85,10.0,Calm,Calm,-,0.03,Rain,Light Rain,0,2013-05-03 04:53:00
9:03 PM,35.6,33.8,93,29.84,10.0,Calm,Calm,-,0.00,Rain,Light Rain,0,2013-05-03 05:03:00
9:53 PM,34.0,34.0,100,29.84,9.0,North,4.6,-,0.03,Rain,Light Rain,10,2013-05-03 05:53:00
10:53 PM,33.1,33.1,100,29.84,7.0,North,5.8,-,0.04,Rain,Light Rain,360,2013-05-03 06:53:00
11:53 PM,34.0,34.0,100,29.83,10.0,North,4.6,-,0.03,Rain,Light Rain,10,2013-05-03 07:53:00